#datetime,building,power
2022-02-05T00:02:00,pkn,2.40
2022-02-05T00:04:00,pkn,2.40
2022-02-05T00:06:00,pkn,2.40
2022-02-05T00:08:00,pkn,1.20
2022-02-05T00:10:00,pkn,2.40
2022-02-05T00:11:00,pkn,1.20
2022-02-05T00:13:00,pkn,7.20
2022-02-05T00:14:00,pkn,4.80
2022-02-05T00:15:00,pkn,3.60
2022-02-05T00:17:00,pkn,10.80
2022-02-05T00:18:00,pkn,6.00
2022-02-05T00:20:00,pkn,9.60
2022-02-05T00:21:00,pkn,4.80
2022-02-05T00:22:00,pkn,4.80
2022-02-05T00:24:00,pkn,10.80
2022-02-05T00:26:00,pkn,7.20
2022-02-05T00:28:00,pkn,2.40
2022-02-05T00:30:00,pkn,1.20
2022-02-05T00:32:00,pkn,2.40
2022-02-05T00:34:00,pkn,2.40
2022-02-05T00:37:00,pkn,2.40
2022-02-05T00:39:00,pkn,2.40
2022-02-05T00:41:00,pkn,2.40
2022-02-05T00:43:00,pkn,1.20
2022-02-05T00:45:00,pkn,2.40
2022-02-05T00:47:00,pkn,1.20
2022-02-05T00:49:00,pkn,2.40
2022-02-05T00:51:00,pkn,10.80
2022-02-05T00:52:00,pkn,4.80
2022-02-05T00:53:00,pkn,4.80
2022-02-05T00:55:00,pkn,10.80
2022-02-05T00:57:00,pkn,9.60
2022-02-05T00:59:00,pkn,8.40
2022-02-05T01:01:00,pkn,3.60
2022-02-05T01:03:00,pkn,2.40
2022-02-05T01:05:00,pkn,3.60
2022-02-05T01:07:00,pkn,2.40
2022-02-05T01:08:00,pkn,1.20
2022-02-05T01:10:00,pkn,2.40
2022-02-05T01:11:00,pkn,1.20
2022-02-05T01:14:00,pkn,2.40
2022-02-05T01:16:00,pkn,2.40
2022-02-05T01:18:00,pkn,1.20
2022-02-05T01:20:00,pkn,2.40
2022-02-05T01:22:00,pkn,2.40
2022-02-05T01:25:00,pkn,3.60
2022-02-05T01:27:00,pkn,10.80
2022-02-05T01:29:00,pkn,9.60
2022-02-05T01:31:00,pkn,10.80
2022-02-05T01:33:00,pkn,9.60
2022-02-05T01:35:00,pkn,6.00
2022-02-05T01:37:00,pkn,1.20
2022-02-05T01:39:00,pkn,2.40
2022-02-05T01:40:00,pkn,1.20
2022-02-05T01:43:00,pkn,2.40
2022-02-05T01:45:00,pkn,1.20
2022-02-05T01:46:00,pkn,1.20
2022-02-05T01:48:00,pkn,1.20
2022-02-05T01:49:00,pkn,1.20
2022-02-05T01:50:00,pkn,1.20
2022-02-05T01:52:00,pkn,2.40
2022-02-05T01:54:00,pkn,1.20
2022-02-05T01:56:00,pkn,1.20
2022-02-05T01:58:00,pkn,2.40
2022-02-05T02:00:00,pkn,1.20
2022-02-05T02:02:00,pkn,1.20
2022-02-05T02:04:00,pkn,6.00
2022-02-05T02:06:00,pkn,9.60
2022-02-05T02:08:00,pkn,9.60
2022-02-05T02:10:00,pkn,9.60
2022-02-05T02:12:00,pkn,9.60
2022-02-05T02:13:00,pkn,1.20
2022-02-05T02:15:00,pkn,2.40
2022-02-05T02:17:00,pkn,1.20
2022-02-05T02:18:00,pkn,1.20
2022-02-05T02:20:00,pkn,1.20
2022-02-05T02:21:00,pkn,1.20
2022-02-05T02:23:00,pkn,2.40
2022-02-05T02:25:00,pkn,1.20
2022-02-05T02:27:00,pkn,2.40
2022-02-05T02:29:00,pkn,1.20
2022-02-05T02:31:00,pkn,1.20
2022-02-05T02:32:00,pkn,1.20
2022-02-05T02:34:00,pkn,2.40
2022-02-05T02:36:00,pkn,1.20
2022-02-05T02:38:00,pkn,1.20
2022-02-05T02:40:00,pkn,2.40
2022-02-05T02:42:00,pkn,1.20
2022-02-05T02:43:00,pkn,1.20
2022-02-05T02:45:00,pkn,1.20
2022-02-05T02:47:00,pkn,7.20
2022-02-05T02:49:00,pkn,9.60
2022-02-05T02:51:00,pkn,8.40
2022-02-05T02:53:00,pkn,9.60
2022-02-05T02:55:00,pkn,8.40
2022-02-05T02:58:00,pkn,2.40
2022-02-05T03:00:00,pkn,1.20
2022-02-05T03:02:00,pkn,1.20
2022-02-05T03:04:00,pkn,1.20
2022-02-05T03:05:00,pkn,1.20
2022-02-05T03:07:00,pkn,1.20
2022-02-05T03:08:00,pkn,1.20
2022-02-05T03:10:00,pkn,1.20
2022-02-05T03:11:00,pkn,1.20
2022-02-05T03:12:00,pkn,1.20
2022-02-05T03:14:00,pkn,1.20
2022-02-05T03:16:00,pkn,1.20
2022-02-05T03:18:00,pkn,2.40
2022-02-05T03:20:00,pkn,1.20
2022-02-05T03:22:00,pkn,4.80
2022-02-05T03:23:00,pkn,3.60
2022-02-05T03:24:00,pkn,4.80
2022-02-05T03:26:00,pkn,9.60
2022-02-05T03:28:00,pkn,9.60
2022-02-05T03:29:00,pkn,4.80
2022-02-05T03:31:00,pkn,9.60
2022-02-05T03:33:00,pkn,9.60
2022-02-05T03:35:00,pkn,9.60
2022-02-05T03:37:00,pkn,9.60
2022-02-05T03:39:00,pkn,9.60
2022-02-05T03:41:00,pkn,10.80
2022-02-05T03:42:00,pkn,1.20
2022-02-05T03:43:00,pkn,7.20
2022-02-05T03:44:00,pkn,6.00
2022-02-05T03:46:00,pkn,9.60
2022-02-05T03:48:00,pkn,8.40
2022-02-05T03:49:00,pkn,6.00
2022-02-05T03:51:00,pkn,8.40
2022-02-05T03:53:00,pkn,10.80
2022-02-05T03:55:00,pkn,9.60
2022-02-05T03:57:00,pkn,9.60
2022-02-05T03:59:00,pkn,8.40
2022-02-05T04:01:00,pkn,10.80
2022-02-05T04:03:00,pkn,9.60
2022-02-05T04:05:00,pkn,9.60
2022-02-05T04:07:00,pkn,8.40
2022-02-05T04:09:00,pkn,10.80
2022-02-05T04:11:00,pkn,9.60
2022-02-05T04:13:00,pkn,9.60
2022-02-05T04:14:00,pkn,1.20
2022-02-05T04:15:00,pkn,7.20
2022-02-05T04:16:00,pkn,1.20
2022-02-05T04:17:00,pkn,1.20
2022-02-05T04:18:00,pkn,1.20
2022-02-05T04:20:00,pkn,2.40
2022-02-05T04:22:00,pkn,1.20
2022-02-05T04:24:00,pkn,1.20
2022-02-05T04:26:00,pkn,2.40
2022-02-05T04:28:00,pkn,2.40
2022-02-05T04:29:00,pkn,3.60
2022-02-05T04:31:00,pkn,10.80
2022-02-05T04:33:00,pkn,9.60
2022-02-05T04:35:00,pkn,9.60
2022-02-05T04:36:00,pkn,4.80
2022-02-05T04:38:00,pkn,9.60
2022-02-05T04:40:00,pkn,10.80
2022-02-05T04:42:00,pkn,8.40
2022-02-05T04:44:00,pkn,6.00
2022-02-05T04:45:00,pkn,1.20
2022-02-05T04:47:00,pkn,1.20
2022-02-05T04:49:00,pkn,2.40
2022-02-05T04:52:00,pkn,2.40
2022-02-05T04:55:00,pkn,2.40
2022-02-05T04:57:00,pkn,1.20
2022-02-05T04:59:00,pkn,2.40
2022-02-05T05:01:00,pkn,2.40
2022-02-05T05:03:00,pkn,9.60
2022-02-05T05:04:00,pkn,4.80
2022-02-05T05:06:00,pkn,10.80
2022-02-05T05:07:00,pkn,3.60
2022-02-05T05:09:00,pkn,10.80
2022-02-05T05:10:00,pkn,4.80
2022-02-05T05:12:00,pkn,8.40
2022-02-05T05:14:00,pkn,2.40
2022-02-05T05:16:00,pkn,1.20
2022-02-05T05:17:00,pkn,1.20
2022-02-05T05:19:00,pkn,2.40
2022-02-05T05:21:00,pkn,1.20
2022-02-05T05:23:00,pkn,1.20
2022-02-05T05:25:00,pkn,2.40
2022-02-05T05:27:00,pkn,1.20
2022-02-05T05:29:00,pkn,1.20
2022-02-05T05:31:00,pkn,1.20
2022-02-05T05:33:00,pkn,1.20
2022-02-05T05:35:00,pkn,4.80
2022-02-05T05:36:00,pkn,3.60
2022-02-05T05:38:00,pkn,10.80
2022-02-05T05:40:00,pkn,9.60
2022-02-05T05:42:00,pkn,8.40
2022-02-05T05:43:00,pkn,6.00
2022-02-05T05:45:00,pkn,7.20
2022-02-05T05:46:00,pkn,1.20
2022-02-05T05:48:00,pkn,1.20
2022-02-05T05:50:00,pkn,1.20
2022-02-05T05:51:00,pkn,1.20
2022-02-05T05:53:00,pkn,2.40
2022-02-05T05:56:00,pkn,2.40
2022-02-05T05:58:00,pkn,1.20
2022-02-05T06:00:00,pkn,1.20
2022-02-05T06:01:00,pkn,1.20
2022-02-05T06:03:00,pkn,1.20
2022-02-05T06:05:00,pkn,1.20
2022-02-05T06:07:00,pkn,1.20
2022-02-05T06:09:00,pkn,2.40
2022-02-05T06:12:00,pkn,1.20
2022-02-05T06:14:00,pkn,2.40
2022-02-05T06:16:00,pkn,6.00
2022-02-05T06:18:00,pkn,10.80
2022-02-05T06:20:00,pkn,9.60
2022-02-05T06:21:00,pkn,4.80
2022-02-05T06:22:00,pkn,3.60
2022-02-05T06:24:00,pkn,9.60
2022-02-05T06:26:00,pkn,10.80
2022-02-05T06:28:00,pkn,8.40
2022-02-05T06:30:00,pkn,9.60
2022-02-05T06:32:00,pkn,10.80
2022-02-05T06:34:00,pkn,8.40
2022-02-05T06:35:00,pkn,6.00
2022-02-05T06:37:00,pkn,8.40
2022-02-05T06:38:00,pkn,6.00
2022-02-05T06:40:00,pkn,8.40
2022-02-05T06:42:00,pkn,7.20
2022-02-05T06:44:00,pkn,2.40
2022-02-05T06:46:00,pkn,1.20
2022-02-05T06:48:00,pkn,1.20
2022-02-05T06:50:00,pkn,1.20
2022-02-05T06:52:00,pkn,2.40
2022-02-05T06:54:00,pkn,1.20
2022-02-05T06:55:00,pkn,1.20
2022-02-05T06:57:00,pkn,1.20
2022-02-05T06:58:00,pkn,2.40
2022-02-05T07:00:00,pkn,8.40
2022-02-05T07:02:00,pkn,10.80
2022-02-05T07:04:00,pkn,9.60
2022-02-05T07:06:00,pkn,9.60
2022-02-05T07:07:00,pkn,4.80
2022-02-05T07:09:00,pkn,9.60
2022-02-05T07:11:00,pkn,2.40
2022-02-05T07:14:00,pkn,2.40
2022-02-05T07:15:00,pkn,1.20
2022-02-05T07:17:00,pkn,2.40
2022-02-05T07:19:00,pkn,1.20
2022-02-05T07:21:00,pkn,2.40
2022-02-05T07:23:00,pkn,1.20
2022-02-05T07:25:00,pkn,2.40
2022-02-05T07:28:00,pkn,1.20
2022-02-05T07:29:00,pkn,1.20
2022-02-05T07:31:00,pkn,1.20
2022-02-05T07:33:00,pkn,4.80
2022-02-05T07:35:00,pkn,9.60
2022-02-05T07:37:00,pkn,9.60
2022-02-05T07:39:00,pkn,8.40
2022-02-05T07:40:00,pkn,1.20
2022-02-05T07:41:00,pkn,8.40
2022-02-05T07:42:00,pkn,1.20
2022-02-05T07:43:00,pkn,6.00
2022-02-05T07:44:00,pkn,1.20
2022-02-05T07:47:00,pkn,2.40
2022-02-05T07:50:00,pkn,2.40
2022-02-05T07:51:00,pkn,1.20
2022-02-05T07:54:00,pkn,1.20
2022-02-05T07:55:00,pkn,1.20
2022-02-05T07:56:00,pkn,1.20
2022-02-05T07:58:00,pkn,1.20
2022-02-05T08:00:00,pkn,1.20
2022-02-05T08:02:00,pkn,1.20
2022-02-05T08:04:00,pkn,2.40
2022-02-05T08:07:00,pkn,2.40
2022-02-05T08:08:00,pkn,3.60
2022-02-05T08:10:00,pkn,10.80
2022-02-05T08:12:00,pkn,9.60
2022-02-05T08:13:00,pkn,3.60
2022-02-05T08:15:00,pkn,10.80
2022-02-05T08:16:00,pkn,3.60
2022-02-05T08:18:00,pkn,4.80
2022-02-05T08:21:00,pkn,2.40
2022-02-05T08:23:00,pkn,4.80
2022-02-05T08:24:00,pkn,2.40
2022-02-05T08:26:00,pkn,6.00
2022-02-05T08:28:00,pkn,4.80
2022-02-05T08:30:00,pkn,1.20
2022-02-05T08:32:00,pkn,1.20
2022-02-05T08:34:00,pkn,3.60
2022-02-05T08:35:00,pkn,2.40
2022-02-05T08:37:00,pkn,6.00
2022-02-05T08:39:00,pkn,4.80
2022-02-05T08:40:00,pkn,3.60
2022-02-05T08:42:00,pkn,3.60
2022-02-05T08:44:00,pkn,9.60
2022-02-05T08:46:00,pkn,13.20
2022-02-05T08:48:00,pkn,10.80
2022-02-05T08:50:00,pkn,8.40
2022-02-05T08:51:00,pkn,6.00
2022-02-05T08:53:00,pkn,8.40
2022-02-05T08:55:00,pkn,3.60
2022-02-05T08:57:00,pkn,1.20
2022-02-05T08:59:00,pkn,2.40
2022-02-05T09:01:00,pkn,1.20
2022-02-05T09:03:00,pkn,1.20
2022-02-05T09:04:00,pkn,1.20
2022-02-05T09:06:00,pkn,6.00
2022-02-05T09:07:00,pkn,6.00
2022-02-05T09:09:00,pkn,8.40
2022-02-05T09:11:00,pkn,9.60
2022-02-05T09:12:00,pkn,4.80
2022-02-05T09:14:00,pkn,9.60
2022-02-05T09:15:00,pkn,6.00
2022-02-05T09:17:00,pkn,8.40
2022-02-05T09:19:00,pkn,8.40
2022-02-05T09:20:00,pkn,2.40
2022-02-05T09:21:00,pkn,8.40
2022-02-05T09:23:00,pkn,8.40
2022-02-05T09:25:00,pkn,10.80
2022-02-05T09:27:00,pkn,9.60
2022-02-05T09:28:00,pkn,3.60
2022-02-05T09:29:00,pkn,4.80
2022-02-05T09:31:00,pkn,9.60
2022-02-05T09:33:00,pkn,9.60
2022-02-05T09:34:00,pkn,4.80
2022-02-05T09:36:00,pkn,9.60
2022-02-05T09:38:00,pkn,9.60
2022-02-05T09:40:00,pkn,8.40
2022-02-05T09:42:00,pkn,9.60
2022-02-05T09:43:00,pkn,3.60
2022-02-05T09:45:00,pkn,10.80
2022-02-05T09:47:00,pkn,9.60
2022-02-05T09:48:00,pkn,3.60
2022-02-05T09:50:00,pkn,9.60
2022-02-05T09:52:00,pkn,9.60
2022-02-05T09:54:00,pkn,9.60
2022-02-05T09:55:00,pkn,4.80
2022-02-05T09:57:00,pkn,3.60
2022-02-05T09:59:00,pkn,1.20
2022-02-05T10:01:00,pkn,1.20
2022-02-05T10:03:00,pkn,1.20
2022-02-05T10:05:00,pkn,1.20
2022-02-05T10:07:00,pkn,1.20
2022-02-05T10:09:00,pkn,3.60
2022-02-05T10:11:00,pkn,9.60
2022-02-05T10:13:00,pkn,9.60
2022-02-05T10:14:00,pkn,4.80
2022-02-05T10:16:00,pkn,9.60
2022-02-05T10:18:00,pkn,8.40
2022-02-05T10:20:00,pkn,9.60
2022-02-05T10:22:00,pkn,10.80
2022-02-05T10:24:00,pkn,1.20
2022-02-05T10:26:00,pkn,1.20
2022-02-05T10:28:00,pkn,1.20
2022-02-05T10:30:00,pkn,1.20
2022-02-05T10:32:00,pkn,1.20
2022-02-05T10:34:00,pkn,1.20
2022-02-05T10:36:00,pkn,3.60
2022-02-05T10:38:00,pkn,3.60
2022-02-05T10:40:00,pkn,6.00
2022-02-05T10:41:00,pkn,4.80
2022-02-05T10:43:00,pkn,9.60
2022-02-05T10:45:00,pkn,9.60
2022-02-05T10:47:00,pkn,9.60
2022-02-05T10:49:00,pkn,8.40
2022-02-05T10:51:00,pkn,6.00
2022-02-05T10:53:00,pkn,1.20
2022-02-05T10:55:00,pkn,2.40
2022-02-05T10:57:00,pkn,1.20
2022-02-05T10:59:00,pkn,1.20
2022-02-05T11:01:00,pkn,1.20
2022-02-05T11:03:00,pkn,1.20
2022-02-05T11:05:00,pkn,1.20
2022-02-05T11:07:00,pkn,1.20
2022-02-05T11:09:00,pkn,1.20
2022-02-05T11:11:00,pkn,1.20
2022-02-05T11:13:00,pkn,3.60
2022-02-05T11:15:00,pkn,9.60
2022-02-05T11:17:00,pkn,14.40
2022-02-05T11:18:00,pkn,7.20
2022-02-05T11:20:00,pkn,14.40
2022-02-05T11:22:00,pkn,13.20
2022-02-05T11:24:00,pkn,2.40
2022-02-05T11:25:00,pkn,2.40
2022-02-05T11:26:00,pkn,2.40
2022-02-05T11:28:00,pkn,3.60
2022-02-05T11:30:00,pkn,2.40
2022-02-05T11:31:00,pkn,1.20
2022-02-05T11:33:00,pkn,1.20
2022-02-05T11:35:00,pkn,2.40
2022-02-05T11:37:00,pkn,1.20
2022-02-05T11:39:00,pkn,3.60
2022-02-05T11:41:00,pkn,8.40
2022-02-05T11:43:00,pkn,9.60
2022-02-05T11:45:00,pkn,10.80
2022-02-05T11:47:00,pkn,9.60
2022-02-05T11:49:00,pkn,9.60
2022-02-05T11:51:00,pkn,9.60
2022-02-05T11:52:00,pkn,4.80
2022-02-05T11:54:00,pkn,10.80
2022-02-05T11:56:00,pkn,8.40
2022-02-05T11:58:00,pkn,9.60
2022-02-05T12:00:00,pkn,10.80
2022-02-05T12:02:00,pkn,9.60
2022-02-05T12:04:00,pkn,9.60
2022-02-05T12:06:00,pkn,9.60
2022-02-05T12:07:00,pkn,6.00
2022-02-05T12:09:00,pkn,8.40
2022-02-05T12:11:00,pkn,9.60
2022-02-05T12:12:00,pkn,6.00
2022-02-05T12:14:00,pkn,8.40
2022-02-05T12:16:00,pkn,9.60
2022-02-05T12:18:00,pkn,10.80
2022-02-05T12:20:00,pkn,9.60
2022-02-05T12:22:00,pkn,4.80
2022-02-05T12:24:00,pkn,1.20
2022-02-05T12:26:00,pkn,2.40
2022-02-05T12:28:00,pkn,1.20
2022-02-05T12:30:00,pkn,1.20
2022-02-05T12:32:00,pkn,1.20
2022-02-05T12:34:00,pkn,1.20
2022-02-05T12:35:00,pkn,3.60
2022-02-05T12:37:00,pkn,9.60
2022-02-05T12:39:00,pkn,9.60
2022-02-05T12:41:00,pkn,9.60
2022-02-05T12:42:00,pkn,4.80
2022-02-05T12:44:00,pkn,9.60
2022-02-05T12:46:00,pkn,9.60
2022-02-05T12:48:00,pkn,7.20
2022-02-05T12:49:00,pkn,1.20
2022-02-05T12:51:00,pkn,1.20
2022-02-05T12:52:00,pkn,1.20
2022-02-05T12:53:00,pkn,1.20
2022-02-05T12:56:00,pkn,2.40
2022-02-05T12:59:00,pkn,1.20
2022-02-05T13:00:00,pkn,1.20
2022-02-05T13:03:00,pkn,2.40
2022-02-05T13:05:00,pkn,1.20
2022-02-05T13:07:00,pkn,9.60
2022-02-05T13:09:00,pkn,9.60
2022-02-05T13:11:00,pkn,9.60
2022-02-05T13:13:00,pkn,8.40
2022-02-05T13:15:00,pkn,9.60
2022-02-05T13:17:00,pkn,9.60
2022-02-05T13:19:00,pkn,9.60
2022-02-05T13:21:00,pkn,10.80
2022-02-05T13:23:00,pkn,9.60
2022-02-05T13:24:00,pkn,4.80
2022-02-05T13:26:00,pkn,9.60
2022-02-05T13:28:00,pkn,9.60
2022-02-05T13:29:00,pkn,4.80
2022-02-05T13:30:00,pkn,4.80
2022-02-05T13:31:00,pkn,7.20
2022-02-05T13:33:00,pkn,10.80
2022-02-05T13:35:00,pkn,12.00
2022-02-05T13:37:00,pkn,6.00
2022-02-05T13:38:00,pkn,1.20
2022-02-05T13:40:00,pkn,3.60
2022-02-05T13:42:00,pkn,1.20
2022-02-05T13:44:00,pkn,1.20
2022-02-05T13:45:00,pkn,1.20
2022-02-05T13:47:00,pkn,8.40
2022-02-05T13:48:00,pkn,6.00
2022-02-05T13:50:00,pkn,10.80
2022-02-05T13:52:00,pkn,8.40
2022-02-05T13:53:00,pkn,6.00
2022-02-05T13:55:00,pkn,10.80
2022-02-05T13:56:00,pkn,4.80
2022-02-05T13:57:00,pkn,6.00
2022-02-05T13:59:00,pkn,8.40
2022-02-05T14:01:00,pkn,9.60
2022-02-05T14:03:00,pkn,9.60
2022-02-05T14:04:00,pkn,3.60
2022-02-05T14:06:00,pkn,2.40
2022-02-05T14:08:00,pkn,1.20
2022-02-05T14:10:00,pkn,2.40
2022-02-05T14:12:00,pkn,1.20
2022-02-05T14:14:00,pkn,1.20
2022-02-05T14:15:00,pkn,1.20
2022-02-05T14:17:00,pkn,1.20
2022-02-05T14:19:00,pkn,9.60
2022-02-05T14:21:00,pkn,10.80
2022-02-05T14:23:00,pkn,9.60
2022-02-05T14:25:00,pkn,9.60
2022-02-05T14:27:00,pkn,10.80
2022-02-05T14:29:00,pkn,8.40
2022-02-05T14:31:00,pkn,9.60
2022-02-05T14:33:00,pkn,6.00
2022-02-05T14:35:00,pkn,2.40
2022-02-05T14:37:00,pkn,4.80
2022-02-05T14:38:00,pkn,2.40
2022-02-05T14:40:00,pkn,6.00
2022-02-05T14:42:00,pkn,4.80
2022-02-05T14:43:00,pkn,3.60
2022-02-05T14:45:00,pkn,4.80
2022-02-05T14:46:00,pkn,1.20
2022-02-05T14:48:00,pkn,2.40
2022-02-05T14:50:00,pkn,3.60
2022-02-05T14:52:00,pkn,7.20
2022-02-05T14:53:00,pkn,3.60
2022-02-05T14:55:00,pkn,9.60
2022-02-05T14:57:00,pkn,10.80
2022-02-05T14:59:00,pkn,8.40
2022-02-05T15:01:00,pkn,10.80
2022-02-05T15:02:00,pkn,4.80
2022-02-05T15:04:00,pkn,10.80
2022-02-05T15:06:00,pkn,1.20
2022-02-05T15:08:00,pkn,2.40
2022-02-05T15:10:00,pkn,1.20
2022-02-05T15:11:00,pkn,1.20
2022-02-05T15:13:00,pkn,2.40
2022-02-05T15:16:00,pkn,2.40
2022-02-05T15:18:00,pkn,1.20
2022-02-05T15:19:00,pkn,1.20
2022-02-05T15:21:00,pkn,2.40
2022-02-05T15:23:00,pkn,1.20
2022-02-05T15:25:00,pkn,2.40
2022-02-05T15:28:00,pkn,6.00
2022-02-05T15:30:00,pkn,10.80
2022-02-05T15:32:00,pkn,9.60
2022-02-05T15:34:00,pkn,9.60
2022-02-05T15:36:00,pkn,9.60
2022-02-05T15:38:00,pkn,4.80
2022-02-05T15:40:00,pkn,2.40
2022-02-05T15:42:00,pkn,3.60
2022-02-05T15:44:00,pkn,6.00
2022-02-05T15:45:00,pkn,3.60
2022-02-05T15:47:00,pkn,7.20
2022-02-05T15:49:00,pkn,3.60
2022-02-05T15:50:00,pkn,1.20
2022-02-05T15:51:00,pkn,2.40
2022-02-05T15:53:00,pkn,3.60
2022-02-05T15:55:00,pkn,4.80
2022-02-05T15:57:00,pkn,4.80
2022-02-05T15:59:00,pkn,2.40
2022-02-05T16:01:00,pkn,2.40
2022-02-05T16:03:00,pkn,9.60
2022-02-05T16:05:00,pkn,9.60
2022-02-05T16:06:00,pkn,6.00
2022-02-05T16:08:00,pkn,9.60
2022-02-05T16:10:00,pkn,9.60
2022-02-05T16:12:00,pkn,1.20
2022-02-05T16:14:00,pkn,2.40
2022-02-05T16:16:00,pkn,1.20
2022-02-05T16:17:00,pkn,1.20
2022-02-05T16:19:00,pkn,2.40
2022-02-05T16:21:00,pkn,3.60
2022-02-05T16:23:00,pkn,10.80
2022-02-05T16:25:00,pkn,10.80
2022-02-05T16:27:00,pkn,7.20
2022-02-05T16:29:00,pkn,4.80
2022-02-05T16:31:00,pkn,4.80
2022-02-05T16:33:00,pkn,6.00
2022-02-05T16:35:00,pkn,1.20
2022-02-05T16:37:00,pkn,8.40
2022-02-05T16:39:00,pkn,10.80
2022-02-05T16:41:00,pkn,8.40
2022-02-05T16:43:00,pkn,10.80
2022-02-05T16:44:00,pkn,7.20
2022-02-05T16:46:00,pkn,15.60
2022-02-05T16:47:00,pkn,4.80
2022-02-05T16:49:00,pkn,6.00
2022-02-05T16:50:00,pkn,3.60
2022-02-05T16:52:00,pkn,6.00
2022-02-05T16:54:00,pkn,1.20
2022-02-05T16:55:00,pkn,1.20
2022-02-05T16:57:00,pkn,2.40
2022-02-05T16:59:00,pkn,2.40
2022-02-05T17:01:00,pkn,2.40
2022-02-05T17:03:00,pkn,2.40
2022-02-05T17:06:00,pkn,2.40
2022-02-05T17:08:00,pkn,1.20
2022-02-05T17:10:00,pkn,2.40
2022-02-05T17:12:00,pkn,1.20
2022-02-05T17:14:00,pkn,7.20
2022-02-05T17:16:00,pkn,10.80
2022-02-05T17:18:00,pkn,8.40
2022-02-05T17:20:00,pkn,10.80
2022-02-05T17:22:00,pkn,8.40
2022-02-05T17:24:00,pkn,2.40
2022-02-05T17:27:00,pkn,2.40
2022-02-05T17:29:00,pkn,1.20
2022-02-05T17:31:00,pkn,2.40
2022-02-05T17:33:00,pkn,1.20
2022-02-05T17:35:00,pkn,1.20
2022-02-05T17:37:00,pkn,2.40
2022-02-05T17:39:00,pkn,1.20
2022-02-05T17:41:00,pkn,2.40
2022-02-05T17:43:00,pkn,1.20
2022-02-05T17:45:00,pkn,2.40
2022-02-05T17:47:00,pkn,1.20
2022-02-05T17:49:00,pkn,4.80
2022-02-05T17:51:00,pkn,9.60
2022-02-05T17:53:00,pkn,9.60
2022-02-05T17:55:00,pkn,9.60
2022-02-05T17:57:00,pkn,9.60
2022-02-05T17:58:00,pkn,2.40
2022-02-05T18:00:00,pkn,1.20
2022-02-05T18:02:00,pkn,1.20
2022-02-05T18:04:00,pkn,2.40
2022-02-05T18:06:00,pkn,1.20
2022-02-05T18:08:00,pkn,2.40
2022-02-05T18:10:00,pkn,1.20
2022-02-05T18:12:00,pkn,2.40
2022-02-05T18:14:00,pkn,1.20
2022-02-05T18:16:00,pkn,2.40
2022-02-05T18:18:00,pkn,2.40
2022-02-05T18:21:00,pkn,2.40
2022-02-05T18:23:00,pkn,4.80
2022-02-05T18:25:00,pkn,8.40
2022-02-05T18:27:00,pkn,8.40
2022-02-05T18:29:00,pkn,12.00
2022-02-05T18:30:00,pkn,8.40
2022-02-05T18:32:00,pkn,13.20
2022-02-05T18:33:00,pkn,7.20
2022-02-05T18:35:00,pkn,12.00
2022-02-05T18:37:00,pkn,12.00
2022-02-05T18:39:00,pkn,7.20
2022-02-05T18:41:00,pkn,2.40
2022-02-05T18:43:00,pkn,3.60
2022-02-05T18:45:00,pkn,3.60
2022-02-05T18:46:00,pkn,1.20
2022-02-05T18:48:00,pkn,3.60
2022-02-05T18:50:00,pkn,2.40
2022-02-05T18:52:00,pkn,2.40
2022-02-05T18:53:00,pkn,1.20
2022-02-05T18:55:00,pkn,1.20
2022-02-05T18:57:00,pkn,3.60
2022-02-05T18:58:00,pkn,1.20
2022-02-05T19:00:00,pkn,2.40
2022-02-05T19:01:00,pkn,1.20
2022-02-05T19:03:00,pkn,2.40
2022-02-05T19:04:00,pkn,1.20
2022-02-05T19:05:00,pkn,1.20
2022-02-05T19:07:00,pkn,1.20
2022-02-05T19:09:00,pkn,10.80
2022-02-05T19:11:00,pkn,10.80
2022-02-05T19:12:00,pkn,3.60
2022-02-05T19:13:00,pkn,2.40
2022-02-05T19:14:00,pkn,8.40
2022-02-05T19:15:00,pkn,2.40
2022-02-05T19:16:00,pkn,6.00
2022-02-05T19:17:00,pkn,2.40
2022-02-05T19:19:00,pkn,1.20
2022-02-05T19:20:00,pkn,1.20
2022-02-05T19:22:00,pkn,2.40
2022-02-05T19:24:00,pkn,2.40
2022-02-05T19:26:00,pkn,2.40
2022-02-05T19:28:00,pkn,2.40
2022-02-05T19:29:00,pkn,1.20
2022-02-05T19:31:00,pkn,2.40
2022-02-05T19:33:00,pkn,2.40
2022-02-05T19:34:00,pkn,1.20
2022-02-05T19:36:00,pkn,2.40
2022-02-05T19:38:00,pkn,2.40
2022-02-05T19:40:00,pkn,1.20
2022-02-05T19:41:00,pkn,1.20
2022-02-05T19:43:00,pkn,7.20
2022-02-05T19:45:00,pkn,4.80
2022-02-05T19:46:00,pkn,1.20
2022-02-05T19:48:00,pkn,2.40
2022-02-05T19:50:00,pkn,2.40
2022-02-05T19:52:00,pkn,9.60
2022-02-05T19:54:00,pkn,10.80
2022-02-05T19:55:00,pkn,4.80
2022-02-05T19:57:00,pkn,10.80
2022-02-05T19:58:00,pkn,4.80
2022-02-05T20:00:00,pkn,6.00
2022-02-05T20:02:00,pkn,2.40
2022-02-05T20:05:00,pkn,2.40
2022-02-05T20:07:00,pkn,2.40
2022-02-05T20:09:00,pkn,2.40
2022-02-05T20:10:00,pkn,1.20
2022-02-05T20:12:00,pkn,2.40
2022-02-05T20:14:00,pkn,2.40
2022-02-05T20:15:00,pkn,1.20
2022-02-05T20:17:00,pkn,1.20
2022-02-05T20:18:00,pkn,1.20
2022-02-05T20:19:00,pkn,1.20
2022-02-05T20:21:00,pkn,2.40
2022-02-05T20:22:00,pkn,1.20
2022-02-05T20:24:00,pkn,2.40
2022-02-05T20:25:00,pkn,1.20
2022-02-05T20:27:00,pkn,1.20
2022-02-05T20:29:00,pkn,2.40
2022-02-05T20:31:00,pkn,2.40
2022-02-05T20:33:00,pkn,2.40
2022-02-05T20:35:00,pkn,2.40
2022-02-05T20:36:00,pkn,1.20
2022-02-05T20:38:00,pkn,1.20
2022-02-05T20:40:00,pkn,2.40
2022-02-05T20:41:00,pkn,1.20
2022-02-05T20:42:00,pkn,3.60
2022-02-05T20:44:00,pkn,10.80
2022-02-05T20:46:00,pkn,9.60
2022-02-05T20:47:00,pkn,4.80
2022-02-05T20:49:00,pkn,10.80
2022-02-05T20:51:00,pkn,3.60
2022-02-05T20:53:00,pkn,2.40
2022-02-05T20:55:00,pkn,2.40
2022-02-05T20:57:00,pkn,2.40
2022-02-05T20:59:00,pkn,2.40
2022-02-05T21:01:00,pkn,2.40
2022-02-05T21:03:00,pkn,2.40
2022-02-05T21:05:00,pkn,1.20
2022-02-05T21:07:00,pkn,2.40
2022-02-05T21:09:00,pkn,2.40
2022-02-05T21:10:00,pkn,1.20
2022-02-05T21:12:00,pkn,2.40
2022-02-05T21:14:00,pkn,6.00
2022-02-05T21:16:00,pkn,10.80
2022-02-05T21:17:00,pkn,3.60
2022-02-05T21:19:00,pkn,10.80
2022-02-05T21:21:00,pkn,10.80
2022-02-05T21:23:00,pkn,9.60
2022-02-05T21:25:00,pkn,10.80
2022-02-05T21:27:00,pkn,8.40
2022-02-05T21:29:00,pkn,10.80
2022-02-05T21:30:00,pkn,6.00
2022-02-05T21:32:00,pkn,8.40
2022-02-05T21:34:00,pkn,10.80
2022-02-05T21:36:00,pkn,9.60
2022-02-05T21:38:00,pkn,9.60
2022-02-05T21:40:00,pkn,3.60
2022-02-05T21:42:00,pkn,1.20
2022-02-05T21:44:00,pkn,2.40
2022-02-05T21:46:00,pkn,1.20
2022-02-05T21:47:00,pkn,1.20
2022-02-05T21:49:00,pkn,1.20
2022-02-05T21:51:00,pkn,2.40
2022-02-05T21:53:00,pkn,2.40
2022-02-05T21:56:00,pkn,3.60
2022-02-05T21:58:00,pkn,9.60
2022-02-05T22:00:00,pkn,10.80
2022-02-05T22:02:00,pkn,10.80
2022-02-05T22:04:00,pkn,9.60
2022-02-05T22:05:00,pkn,4.80
2022-02-05T22:06:00,pkn,4.80
2022-02-05T22:08:00,pkn,6.00
2022-02-05T22:09:00,pkn,1.20
2022-02-05T22:11:00,pkn,1.20
2022-02-05T22:13:00,pkn,1.20
2022-02-05T22:15:00,pkn,2.40
2022-02-05T22:16:00,pkn,1.20
2022-02-05T22:18:00,pkn,1.20
2022-02-05T22:20:00,pkn,2.40
2022-02-05T22:22:00,pkn,1.20
2022-02-05T22:24:00,pkn,2.40
2022-02-05T22:26:00,pkn,1.20
2022-02-05T22:28:00,pkn,2.40
2022-02-05T22:30:00,pkn,2.40
2022-02-05T22:32:00,pkn,2.40
2022-02-05T22:33:00,pkn,1.20
2022-02-05T22:35:00,pkn,2.40
2022-02-05T22:37:00,pkn,3.60
2022-02-05T22:39:00,pkn,10.80
2022-02-05T22:41:00,pkn,10.80
2022-02-05T22:43:00,pkn,8.40
2022-02-05T22:45:00,pkn,10.80
2022-02-05T22:47:00,pkn,2.40
2022-02-05T22:49:00,pkn,2.40
2022-02-05T22:51:00,pkn,1.20
2022-02-05T22:53:00,pkn,2.40
2022-02-05T22:55:00,pkn,1.20
2022-02-05T22:57:00,pkn,2.40
2022-02-05T22:59:00,pkn,1.20
2022-02-05T23:01:00,pkn,2.40
2022-02-05T23:03:00,pkn,2.40
2022-02-05T23:04:00,pkn,1.20
2022-02-05T23:06:00,pkn,1.20
2022-02-05T23:07:00,pkn,2.40
2022-02-05T23:09:00,pkn,2.40
2022-02-05T23:10:00,pkn,1.20
2022-02-05T23:12:00,pkn,3.60
2022-02-05T23:13:00,pkn,1.20
2022-02-05T23:15:00,pkn,2.40
2022-02-05T23:16:00,pkn,1.20
2022-02-05T23:17:00,pkn,1.20
2022-02-05T23:19:00,pkn,1.20
2022-02-05T23:21:00,pkn,2.40
2022-02-05T23:23:00,pkn,1.20
2022-02-05T23:25:00,pkn,2.40
2022-02-05T23:27:00,pkn,3.60
2022-02-05T23:29:00,pkn,10.80
2022-02-05T23:31:00,pkn,9.60
2022-02-05T23:33:00,pkn,9.60
2022-02-05T23:35:00,pkn,9.60
2022-02-05T23:37:00,pkn,1.20
2022-02-05T23:39:00,pkn,2.40
2022-02-05T23:41:00,pkn,1.20
2022-02-05T23:42:00,pkn,1.20
2022-02-05T23:44:00,pkn,1.20
2022-02-05T23:46:00,pkn,2.40
2022-02-05T23:48:00,pkn,1.20
2022-02-05T23:49:00,pkn,1.20
2022-02-05T23:51:00,pkn,2.40
2022-02-05T23:52:00,pkn,1.20
2022-02-05T23:54:00,pkn,2.40
2022-02-05T23:55:00,pkn,1.20
2022-02-05T23:58:00,pkn,2.40
